Station LWSD1 - 8557380 - Lewes, DE Image indicating link to RSS feed of recent meteorological observations for station LWSD1


Conditions at LWSD1 as of
(4:30 am EDT)
0830 GMT on 06/23/2024:
     

Click on the graph icon in the table below to see a time series plot of the last five days of that observation.

5-day plot - Wind Direction Wind Direction (WDIR): SW ( 220 deg true )
5-day plot - Wind Speed Wind Speed (WSPD):4.1 m/s
5-day plot - Wind Gust Wind Gust (GST):6.2 m/s
5-day plot - Atmospheric Pressure Atmospheric Pressure (PRES):1011.8 mb
5-day plot - Air Temperature Air Temperature (ATMP): 25.9 °C
5-day plot - Water Temperature Water Temperature (WTMP): 16.8 °C
5-day plot - Wind Speed at 10 Meters Wind Speed at 10 meters (WSPD10M): 4 m/s
5-day plot - Wind Speed at 20 Meters Wind Speed at 20 meters (WSPD20M): 4 m/s
5-day plot -  Wind Speed, Wind Gust and Atmospheric Pressure Combined plot of Wind Speed, Gust, and Air Pressure
NOS Water Level Observation Network Water Level
Previous observations
TIME
(EDT)
5-day plot - Wind Direction
WDIR
 
5-day plot - Wind Speed
WSPD
m/s
5-day plot - Wind Gust
GST
m/s
5-day plot - Wave Height
WVHT
m
5-day plot - Dominant Wave Period
DPD
sec
5-day plot - Average Wave Period
APD
sec
5-day plot - Mean Wave Direction
MWD
 
5-day plot - Atmospheric Pressure
PRES
mb
5-day plot - Pressure Tendency
PTDY
mb
5-day plot - Air Temperature
ATMP
°C
5-day plot - Water Temperature
WTMP
°C
5-day plot - Dew Point
DEWP
°C
5-day plot - Salinity
SAL
psu
5-day plot - Visibility
VIS
km
5-day plot - Tide (above MLLW)
TIDE
m
2024-06-23 04:24 am SW 3.1 6.7----1011.9- 25.9 16.8----
2024-06-23 04:18 am SW 3.6 6.7----1011.9- 25.9 16.8----
2024-06-23 04:12 am SW 4.6 7.2----1011.8- 26.0 16.8----
2024-06-23 04:06 am SW 3.1 5.1----1011.8- 26.0 16.8----
2024-06-23 04:00 amSSW 3.1 5.7----1011.9 -1.6 26.0 16.8----
2024-06-23 03:54 am SW 3.1 6.2----1011.9- 26.0 16.8----
2024-06-23 03:48 am SW 3.1 5.7----1012.0- 25.9 16.8----
2024-06-23 03:42 am SW 4.1 6.2----1012.0- 26.0 16.9----
2024-06-23 03:36 am SW 3.6 6.7----1012.0- 26.0 16.9----
2024-06-23 03:30 am SW 4.1 6.7----1012.1- 26.0 16.9----
2024-06-23 03:24 amSSW 3.6 6.2----1012.2- 26.0 16.9----
2024-06-23 03:18 amSSW 3.6 6.7----1012.3- 26.0 16.9----
2024-06-23 03:12 amSSW 3.6 6.2----1012.4- 26.0 16.9----
2024-06-23 03:06 amSSW 4.1 7.2----1012.5- 26.1 16.9----
2024-06-23 03:00 amSSW 3.6 6.2----1012.6 -1.2 26.1 16.9----
2024-06-23 02:54 amSSW 3.1 5.1----1012.7- 26.1 16.9----
2024-06-23 02:48 amSSW 3.6 6.2----1012.8- 26.1 17.0----
2024-06-23 02:42 amSSW 2.6 6.2----1012.8- 26.1 17.0----
2024-06-23 02:36 amSSW 2.6 6.2----1012.9- 26.1 17.0----
2024-06-23 02:30 amSSW 2.6 5.7----1012.9- 26.2 17.0----
2024-06-23 02:24 amSSW 2.6 5.7----1013.0- 26.2 17.0----
2024-06-23 02:18 amSSW 3.6 5.7----1013.0- 26.2 17.0----
2024-06-23 02:12 amSSW 3.6 5.7----1013.0- 26.1 17.0----
2024-06-23 02:06 amSSW 3.1 5.1----1013.1- 26.1 17.1----
2024-06-23 02:00 am--------- 26.1 17.1----
2024-06-23 01:54 am--------- 26.1 17.1----
2024-06-23 01:48 amSSW 3.1 5.1----1013.4- 26.1 17.1----
2024-06-23 01:42 amSSW 3.1 4.6----1013.3- 26.1 17.2----
2024-06-23 01:36 amSSW 2.6 4.6----1013.3- 26.1 17.2----
2024-06-23 01:30 am-------1013.4-- 17.2----
2024-06-23 01:24 am-------1013.4-- 17.3----
2024-06-23 01:18 amSSW 3.1 5.1----1013.4- 26.2 17.3----
2024-06-23 01:12 amSSW 3.1 5.1----1013.4- 26.2 17.3----
2024-06-23 01:06 amSSW 3.1 4.6----1013.4- 26.2 17.4----
2024-06-23 01:00 amSSW 3.1 5.1----1013.5 -1.1 26.2 17.4----
2024-06-23 12:54 amSSW 3.1 4.6----1013.5- 26.3 17.4----
2024-06-23 12:48 am S 3.1 4.6----1013.5- 26.2 17.4----
2024-06-23 12:42 amSSW 3.1 5.7----1013.5- 26.3 17.4----
2024-06-23 12:36 amSSW 3.6 5.1----1013.4- 26.3 17.4----
2024-06-23 12:30 amSSW 3.1 5.7----1013.4- 26.3 17.4----
2024-06-23 12:24 amSSW 3.6 6.2----1013.5- 26.4 17.4----
2024-06-23 12:18 amSSW 3.6 6.2----1013.6-- 17.4----
2024-06-23 12:12 amSSW 3.1 5.7----1013.6-- 17.5----
2024-06-23 12:06 amSSW 3.1 6.2----1013.7-- 17.6----
2024-06-23 12:00 amSSW 3.1 6.2----1013.8 -0.4 26.5 17.7----
2024-06-22 11:54 pmSSW 3.6 5.1----1013.8- 26.5 17.8----
2024-06-22 11:48 pmSSW 3.6 7.2----1013.9- 26.6 18.0----
2024-06-22 11:42 pmSSW 3.1 5.7----1014.0- 26.6 18.1----
2024-06-22 11:36 pmSSW 3.6 5.7----1014.0- 26.6 18.2----
2024-06-22 11:30 pmSSW 3.6 6.2----1014.1- 26.6 18.4----
2024-06-22 11:24 pmSSW 3.6 7.2----1014.2- 26.6 18.5----
2024-06-22 11:18 pm S 4.1 5.7----1014.2- 26.7 18.6----
2024-06-22 11:12 pmSSW 3.1 5.7----1014.3- 26.7 18.9----
2024-06-22 11:06 pmSSW 4.1 7.2----1014.4- 26.8 19.1----
2024-06-22 11:00 pm-------1014.5 +0.4- 19.3----
2024-06-22 10:54 pm-------1014.5-- 19.5----
2024-06-22 10:48 pm-------1014.5-- 19.7----
2024-06-22 10:42 pm-------1014.5-- 19.9----
2024-06-22 10:36 pm-------1014.5-- 20.3----
2024-06-22 10:30 pmSSW 3.6 6.2----1014.6- 27.2 20.6----
2024-06-22 10:24 pmSSW 3.1 6.7----1014.6- 27.3 20.7----
2024-06-22 10:18 pmSSW 4.6 6.7----1014.6- 27.4 21.0----
2024-06-22 10:12 pmSSW 4.1 6.2----1014.5- 27.5 21.5----
2024-06-22 10:06 pmSSW 3.6 5.7----1014.6- 27.6 21.6----
2024-06-22 10:00 pmSSW 4.6 6.7----1014.6 +0.9- 21.8----
2024-06-22 09:54 pmSSW 3.1 5.7----1014.5-- 21.9----
2024-06-22 09:48 pmSSW 3.1 6.7----1014.5- 27.8 21.9----
2024-06-22 09:42 pmSSW 4.6 6.7----1014.5- 27.9 21.8----
2024-06-22 09:36 pmSSW 4.6 6.7----1014.4- 28.0 21.9----
2024-06-22 09:30 pmSSW 2.6 6.2----1014.4-------
2024-06-22 09:24 pmSSW 4.6 6.7----1014.4-------
2024-06-22 09:18 pmSSW 3.6 6.7----1014.3- 28.2 21.6----
2024-06-22 09:12 pm S 4.1 5.7----1014.3- 28.2 21.6----
2024-06-22 09:06 pm S 3.6 6.2----1014.3- 28.4 21.5----
2024-06-22 09:00 pmSSW 2.6 5.7----1014.2 +0.5 28.6 21.7----
2024-06-22 08:54 pm S 3.1 6.2----1014.2- 28.8 21.7----
2024-06-22 08:48 pmSSW 3.1 6.2----1014.1- 28.9 21.7----
2024-06-22 08:42 pm S 4.1 6.7----1014.1- 29.1 21.7----
2024-06-22 08:36 pmSSW 4.1 6.2----1014.1- 29.2 21.6----
2024-06-22 08:30 pmSSW 4.1 6.7----1014.1- 29.3 21.6----
2024-06-22 08:24 pmSSW 3.1 4.6----1014.1- 29.5 21.7----
2024-06-22 08:18 pm S 3.1 5.1----1014.1- 29.7 21.8----
2024-06-22 08:12 pm S 3.6 5.7----1014.0- 30.0 21.9----
2024-06-22 08:06 pm S 3.1 5.1----1014.0- 30.4 21.9----
2024-06-22 08:00 pmSSW 2.6 4.6----1014.1 +0.0 30.6 21.9----
2024-06-22 07:54 pm S 3.6 5.1----1014.1- 30.7 23.0----
2024-06-22 07:48 pmSSW 2.6 5.1------- 22.2----
2024-06-22 07:42 pm S 2.6 5.1------- 22.4----
2024-06-22 07:36 pmSSW 3.1 5.7------- 22.0----
2024-06-22 07:30 pm S 2.1 5.7----1014.0- 31.7 21.9----
2024-06-22 07:24 pmSSW 2.6 5.7----1013.9- 31.8 21.4----
2024-06-22 07:18 pm S 2.1 5.7----1013.9- 31.7 21.5----
2024-06-22 07:00 pm S 4.6 6.2----1013.7 -1.2- 21.7----
2024-06-22 06:54 pm S 4.6 6.7----1013.7-- 21.6----
2024-06-22 06:48 pm S 4.1 5.7----1013.6- 32.1 21.6----
2024-06-22 06:42 pm S 4.6 6.2----1013.5- 32.3 21.7----
2024-06-22 06:36 pm S 3.6 5.1----1013.5- 32.6 21.3----
2024-06-22 06:30 pm SW 3.1 5.7----1013.5- 33.9 20.9----
2024-06-22 06:24 pm SW 3.1 5.7----1013.5- 33.8 20.8----
2024-06-22 06:18 pmSSW 2.1 5.7----1013.6- 34.2 20.7----
2024-06-22 06:12 pmWSW 2.6 6.2----1013.6- 34.4 20.5----
2024-06-22 06:06 pmWSW 3.1 5.1----1013.7- 34.2 20.4----
2024-06-22 06:00 pm W 4.1 6.2----1013.7 -1.7 34.1 20.4----
2024-06-22 05:54 pmWSW 3.6 6.7----1013.8- 34.2 20.4----
2024-06-22 05:48 pm W 4.1 6.2----1013.8- 34.2 20.3----
2024-06-22 05:42 pmWSW 4.6 6.7----1013.8- 34.2 20.3----
2024-06-22 05:36 pmWSW 4.6 6.2----1013.9- 34.2 20.3----
2024-06-22 05:30 pm W 4.1 6.7----1013.9-- 20.2----
2024-06-22 05:24 pmWSW 5.1 6.7----1013.9-- 20.2----
2024-06-22 05:18 pm W 5.1 6.7----1014.0- 34.2 20.2----
2024-06-22 05:12 pm W 4.1 6.2----1014.0- 34.2 20.1----
2024-06-22 05:06 pmWSW 4.6 6.7----1014.2- 34.4 20.1----
2024-06-22 05:00 pmWSW 3.6 6.2----1014.3 -1.8 34.5 20.1----
2024-06-22 04:54 pm W 5.1 6.7----1014.3- 34.3 20.1----
2024-06-22 04:48 pm W 4.1 6.7----1014.3-- 20.1----
2024-06-22 04:42 pm W 3.6 5.7----1014.4-- 20.0----
2024-06-22 04:36 pmSSW 2.1 4.6----1014.5-- 20.0----
2024-06-22 04:30 pm--------- 34.3 20.0----
2024-06-22 04:24 pm--------- 34.5 19.9----
2024-06-22 04:18 pmWSW 2.6 6.2----1014.7-- 19.9----
2024-06-22 04:12 pmWSW 3.1 5.1----1014.8-- 19.9----
2024-06-22 04:06 pm SW 2.6 4.1----1014.8-- 19.9----
2024-06-22 04:00 pm SW 2.6 5.1----1014.9 -1.9 34.8 20.0----
2024-06-22 03:54 pm SW 2.6 4.6----1014.9- 34.7 19.9----
2024-06-22 03:48 pm W 2.6 6.2----1015.0- 34.5 19.9----
2024-06-22 03:42 pmWSW 3.1 5.7----1015.1- 34.5 19.9----
2024-06-22 03:36 pmWSW 4.1 7.2----1015.2- 34.2 19.9----
2024-06-22 03:30 pmWSW 4.1 6.7----1015.2- 34.3 20.0----
2024-06-22 03:24 pmWSW 2.6 6.2----1015.1- 34.3 20.0----
2024-06-22 03:18 pm W 4.6 5.7----1015.2- 33.8 20.0----
2024-06-22 03:12 pmWSW 4.6 6.7----1015.3- 33.9 19.9----
2024-06-22 03:06 pm W 4.1 8.8----1015.3- 34.6 19.8----
2024-06-22 03:00 pm SW 3.1 6.2----1015.4 -2.0 34.4 20.0----
2024-06-22 02:54 pmWSW 4.1 6.7----1015.5- 34.1 20.0----
2024-06-22 02:48 pm SW 3.1 4.6----1015.6- 34.5 20.2----
2024-06-22 02:42 pm W 3.6 5.1----1015.7- 34.5 19.9----
2024-06-22 02:36 pmSSW 3.1 4.6----1015.7- 34.5 20.0----
2024-06-22 02:30 pmWSW 2.6 5.1----1015.8- 34.1 20.1----
2024-06-22 02:24 pmWSW 3.6 5.7----1015.9- 34.3 20.0----
2024-06-22 02:18 pm SW 3.1 6.2----1015.9- 34.1-----
2024-06-22 02:12 pmWSW 5.7 6.7----1016.0- 33.9-----
2024-06-22 02:06 pm W 4.1 6.2----1016.1- 33.9-----
2024-06-22 02:00 pm SW 1.5 6.2----1016.1 -1.8 33.9 20.0----
2024-06-22 01:54 pmWSW 2.6 6.2----1016.2- 33.9 20.1----
2024-06-22 01:48 pmWSW 3.1 6.2----1016.2- 34.3 20.0----
2024-06-22 01:42 pmWSW 2.6 6.2----1016.3- 33.9 19.8----
2024-06-22 01:36 pm W 2.6 6.2----1016.4- 33.7 19.8----
2024-06-22 01:30 pm W 2.1 6.7----1016.5- 33.5 19.8----
2024-06-22 01:24 pm NW 3.6 6.2----1016.6- 33.0 19.8----
2024-06-22 01:18 pm W 6.2 6.7----1016.7- 33.3 19.7----
2024-06-22 01:12 pm W 4.6 7.2----1016.7- 33.3 19.7----
2024-06-22 01:06 pm W 3.6 6.2----1016.8- 33.3 19.7----
2024-06-22 01:00 pmWSW 4.1 6.7----1016.8 -1.5 33.3 19.7----
2024-06-22 12:54 pm W 4.6 6.7----1016.9- 33.3 19.7----
2024-06-22 12:48 pm SW 3.1 4.6----1016.9- 33.4 19.7----
2024-06-22 12:42 pm SW 3.1 6.2----1017.0- 33.3 19.6----
2024-06-22 12:36 pmWSW 4.6 7.2----1017.1- 33.0 19.6----
2024-06-22 12:30 pmWSW 4.1 6.7----1017.2- 32.9 19.6----
2024-06-22 12:24 pmWSW 4.6 7.2----1017.3- 33.1 19.7----
2024-06-22 12:18 pmWSW 3.6 6.2----1017.3- 33.3 19.6----
2024-06-22 12:12 pm SW 2.1 5.7----1017.3- 33.6 19.7----
2024-06-22 12:06 pm SW 3.1 6.2----1017.3- 33.2 19.8----
2024-06-22 12:00 pmWSW 4.1 7.2----1017.4 -1.3 32.6 19.8----
2024-06-22 11:54 amWSW 3.1 7.2----1017.5- 32.7 19.8----
2024-06-22 11:48 am W 4.1 6.2----1017.6-- 19.8----
2024-06-22 11:42 amWSW 3.6 5.7----1017.7-- 19.8----
2024-06-22 11:36 am SW 3.1 6.2----1017.8-- 19.7----
2024-06-22 11:30 am W 4.1 7.2----1017.8- 32.2 19.8----
2024-06-22 11:24 amWSW 4.1 6.2----1017.9- 31.7 19.8----
2024-06-22 11:18 am W 3.6 5.7----1017.8- 31.7 19.8----
2024-06-22 11:12 amWSW 2.6 5.1----1017.8- 31.9 19.9----
2024-06-22 11:06 amWSW 2.6 4.6----1017.9- 31.8 19.7----
2024-06-22 11:00 am SW 1.0 6.2----1017.9 -0.9 31.8 19.7----
2024-06-22 10:54 amWSW 2.6 6.7----1017.9- 31.6 19.6----
2024-06-22 10:48 amWSW 3.6 6.2----1018.0- 31.1 19.7----
2024-06-22 10:42 am W 5.1 7.2----1018.0- 30.9 19.6----
2024-06-22 10:36 amWSW 3.6 5.1----1017.9- 31.2 19.7----
2024-06-22 10:30 amWSW 4.1 6.7----1018.0- 30.9 19.7----
2024-06-22 10:24 amWSW 3.6 5.1----1018.0- 30.8 19.6----
2024-06-22 10:18 am--------- 31.0 19.6----
2024-06-22 10:12 am--------- 30.6 19.7----
2024-06-22 10:06 am--------- 30.4 19.6----
2024-06-22 10:00 amWSW 3.6 8.2----1018.3 -0.7- 19.5----
2024-06-22 09:54 amWSW 5.1 6.2----1018.4-- 19.5----
2024-06-22 09:48 amWSW 5.1 6.2----1018.4- 29.6 19.6----
2024-06-22 09:42 amWSW 3.1 5.7----1018.4- 29.6 19.9----
2024-06-22 09:36 am SW 4.1 6.2----1018.5- 29.3 20.2----
2024-06-22 09:30 amWSW 5.1 6.7----1018.5- 28.9 20.3----
2024-06-22 09:24 amWSW 3.6 6.7----1018.6- 29.0 20.1----
2024-06-22 09:18 amWSW 4.1 6.2----1018.7- 28.7 19.9----
2024-06-22 09:12 amWSW 3.6 6.2----1018.7- 28.4 19.9----
2024-06-22 09:06 amWSW 4.1 6.2----1018.7- 28.2 19.7----
2024-06-22 09:00 amWSW 4.6 7.2----1018.7 -0.3 28.0-----
2024-06-22 08:54 amWSW 4.6 6.2----1018.7- 27.7-----
2024-06-22 08:48 am SW 2.1 6.2----1018.7-------
2024-06-22 08:42 am SW 2.6 5.7----1018.7-------
2024-06-22 08:36 am SW 2.6 5.7----1018.6-------
2024-06-22 08:30 am SW 3.1 6.2------- 19.4----
2024-06-22 08:24 am SW 4.6 6.2------- 19.3----
2024-06-22 08:18 am SW 4.6 6.2----1018.7- 26.7 19.2----
2024-06-22 08:12 amWSW 5.1 6.7----1018.7- 26.4 19.2----
2024-06-22 08:06 amWSW 4.6 6.7----1018.8- 26.4 19.0----
2024-06-22 08:00 am-------1018.8 +0.0- 18.8----
2024-06-22 07:54 am-------1018.8-- 18.6----
2024-06-22 07:48 amWSW 4.6 6.7----1018.8- 25.9 18.4----
2024-06-22 07:42 amWSW 4.1 6.2----1018.8- 25.7 18.2----
2024-06-22 07:36 am SW 4.1 8.2----1018.8- 25.5 18.0----
2024-06-22 07:30 am SW 4.1 5.7----1018.8- 25.3 17.9----
2024-06-22 07:24 am SW 5.1 8.2----1018.8- 25.1 17.8----
2024-06-22 07:18 am SW 4.6 6.2----1018.9-- 17.7----
2024-06-22 07:12 am SW 5.1 7.7----1018.9-- 17.6----
2024-06-22 07:06 am SW 4.1 6.7----1018.9-- 17.6----
2024-06-22 07:00 am SW 3.1 5.7----1019.0- 24.5 17.6----
2024-06-22 06:54 am SW 4.1 6.2----1018.9- 24.3 17.7----
2024-06-22 06:48 am SW 3.6 6.7----1018.9- 24.1 17.7----
2024-06-22 06:42 am SW 3.6 5.7----1019.0- 24.0 17.8----
2024-06-22 06:36 am SW 4.1 7.2----1019.0- 23.8 17.8----
2024-06-22 06:30 am SW 4.1 6.2----1019.0- 23.7-----
2024-06-22 06:24 am SW 4.1 5.7----1019.0- 23.6-----
2024-06-22 06:18 am SW 3.6 5.7----1019.0- 23.5 17.5----
2024-06-22 06:12 am SW 3.1 5.1----1019.0- 23.4 17.3----
2024-06-22 06:06 am SW 3.6 6.7----1019.0- 23.4 17.2----
2024-06-22 06:00 am SW 3.6 6.2----1019.0 -0.7 23.3 17.2----
2024-06-22 05:54 am SW 3.6 5.1----1019.0- 23.3 17.2----
2024-06-22 05:48 am SW 3.6 6.2----1018.9-- 17.2----
2024-06-22 05:42 am SW 3.6 6.2----1018.9-- 17.0----
2024-06-22 05:36 am SW 3.6 6.7----1018.9-- 16.9----
2024-06-22 05:30 am SW 3.1 5.1----1018.9- 23.2 16.9----
2024-06-22 05:24 am SW 3.1 5.7----1018.9- 23.2 16.9----
2024-06-22 05:18 am SW 3.6 6.2----1018.9- 23.2 16.9----
2024-06-22 05:12 am SW 4.1 6.2----1018.9- 23.3 16.9----
2024-06-22 05:06 am SW 3.6 6.7----1018.9- 23.2 16.9----
2024-06-22 05:00 am SW 4.1 6.2----1018.9 -1.0 23.3 16.9----
2024-06-22 04:54 am SW 4.6 7.2----1018.9- 23.3 16.8----